Burley, ID

7:18 AM MST on December 11, 2019 (GMT -0700)
Burley Municipal

Weather History for KBYI - August, 2019

Change the Weather History Date:

Monday, August 19, 2019

  Actual Average Record
Temperature  
Mean Temperature 71 °F 68 °F  
Max Temperature 92 °F 84 °F 98 °F (1992)
Min Temperature 50 °F 51 °F 33 °F (1920)
Degree Days  
Heating Degree Days 0 1  
Month to date heating degree days 4 12  
Since 1 June heating degree days 128 168  
Since 1 July heating degree days 12 34  
Cooling Degree Days 6 4  
Month to date cooling degree days 112 97  
Year to date cooling degree days 322 310  
Since 1 June cooling degree days 322 304  
Growing Degree Days 22 (Base 50)    
Moisture  
Dew Point 47 °F    
Average Humidity 48    
Maximum Humidity 83    
Minimum Humidity 13    
Precipitation  
Precipitation 0.00 in 0.01 in 0.64 in (1968)
Month to date precipitation 0.09 0.22  
Year to date precipitation 8.21 6.58  
Sea Level Pressure  
Sea Level Pressure 29.82 in    
Wind  
Wind Speed 4 mph (WSW)    
Max Wind Speed 10 mph    
Max Gust Speed 14 mph    
Visibility 10 miles    
Events      
T = Trace of Precipitation, MM = Missing Value Source: NWS Daily Summary

Daily Weather History Graph

Daily Weather History Graph

Search for Another Location

Airport or City:

Astronomy

Aug. 19, 2019 Rise Set
Actual Time 6:46 AM MDT 8:30 PM MDT
Civil Twilight 6:15 AM MDT 9:00 PM MDT
Nautical Twilight 5:39 AM MDT 9:36 PM MDT
Astronomical Twilight 5:00 AM MDT 10:15 PM MDT
Moon 10:48 PM MDT (8/19) 10:35 AM MDT (8/19)
Length of Visible Light 14h 44m
Length of Day
13h 44m
Waning Gibbous, 85% of the Moon is Illuminated
Aug 19
Waning Gibbous
Aug 23
Last Quarter
Aug 30
New
Sep 5
First Quarter
Sep 13
Full

Hourly Weather History & Observations

Time (MDT) Temp. Dew Point Humidity Pressure Visibility Wind Dir Wind Speed Gust Speed Precip Events Conditions
12:53 AM 59.0 °F 48.9 °F 69% 29.76 in 10.0 mi Calm Calm - N/A   Clear
1:53 AM 59.0 °F 48.0 °F 67% 29.76 in 10.0 mi Calm Calm - N/A   Clear
2:53 AM 57.0 °F 50.0 °F 77% 29.76 in 10.0 mi Calm Calm - N/A   Clear
3:53 AM 55.9 °F 48.9 °F 77% 29.77 in 10.0 mi SW 4.6 mph - N/A   Clear
4:53 AM 54.0 °F 48.9 °F 83% 29.79 in 10.0 mi Calm Calm - N/A   Clear
5:53 AM 53.1 °F 48.9 °F 86% 29.81 in 10.0 mi Calm Calm - N/A   Clear
6:53 AM 52.0 °F 46.9 °F 83% 29.83 in 10.0 mi NNW 3.5 mph - N/A   Clear
7:53 AM 55.9 °F 48.9 °F 77% 29.84 in 10.0 mi SSE 5.8 mph - N/A   Clear
8:53 AM 62.1 °F 46.0 °F 56% 29.86 in 10.0 mi SSW 3.5 mph - N/A   Clear
9:53 AM 73.0 °F 50.0 °F 44% 29.86 in 10.0 mi West 3.5 mph - N/A   Clear
10:53 AM 79.0 °F 45.0 °F 30% 29.87 in 10.0 mi WNW 3.5 mph - N/A   Clear
11:53 AM 82.9 °F 42.1 °F 24% 29.86 in 10.0 mi Variable 4.6 mph - N/A   Clear
12:53 PM 86.0 °F 44.1 °F 23% 29.86 in 10.0 mi Variable 6.9 mph - N/A   Clear
1:53 PM 86.0 °F 46.9 °F 26% 29.85 in 10.0 mi Variable 6.9 mph - N/A   Clear
2:53 PM 88.0 °F 45.0 °F 22% 29.84 in 10.0 mi West 6.9 mph - N/A   Clear
3:53 PM 89.1 °F 46.9 °F 23% 29.82 in 10.0 mi WNW 6.9 mph - N/A   Clear
4:53 PM 91.0 °F 33.1 °F 13% 29.82 in 10.0 mi WNW 8.1 mph - N/A   Clear
5:53 PM 84.9 °F 46.9 °F 27% 29.82 in 10.0 mi West 5.8 mph - N/A   Clear
6:53 PM 84.9 °F 51.1 °F 31% 29.81 in 10.0 mi SE 3.5 mph - N/A   Clear
7:53 PM 82.9 °F 43.0 °F 24% 29.81 in 10.0 mi WNW 5.8 mph - N/A   Clear
8:53 PM 70.0 °F 51.1 °F 51% 29.84 in 10.0 mi SSW 6.9 mph - N/A   Clear
9:53 PM 68.0 °F 48.9 °F 50% 29.84 in 10.0 mi South 3.5 mph - N/A   Clear
10:53 PM 64.9 °F 51.1 °F 61% 29.84 in 10.0 mi South 3.5 mph - N/A   Clear
11:53 PM 64.9 °F 48.0 °F 54% 29.84 in 10.0 mi SW 5.8 mph - N/A   Clear